| time (UTC) | temp F | wind direction | speed knots | gust knots | rain 1hr in | rain 24hr in | rain mn in | humidity % | barometer mb |
| 20260505130259 | 64 | 282 | 2.6 | 12.2 | 0.00 | 0.00 | 0.00 | 56 | 1017.7 |
| 20260505124758 | 64 | 252 | 5.2 | 7.8 | 0.00 | 0.00 | 0.00 | 56 | 1017.9 |
| 20260505124300 | 64 | 292 | 0.9 | 4.3 | 0.00 | 0.00 | 0.00 | 57 | 1018.0 |
| 20260505123759 | 64 | 261 | 1.7 | 4.3 | 0.00 | 0.00 | 0.00 | 57 | 1018.0 |
| 20260505123259 | 63 | 312 | 2.6 | 8.7 | 0.00 | 0.00 | 0.00 | 57 | 1018.1 |
| 20260505122758 | 63 | 321 | 0.0 | 8.7 | 0.00 | 0.00 | 0.00 | 57 | 1018.1 |
| 20260505122258 | 63 | 264 | 4.3 | 8.7 | 0.00 | 0.00 | 0.00 | 58 | 1018.1 |
| 20260505121758 | 63 | 305 | 2.6 | 7.8 | 0.00 | 0.00 | 0.00 | 58 | 1018.2 |
| 20260505121258 | 63 | 333 | 3.5 | 7.8 | 0.00 | 0.00 | 0.00 | 58 | 1018.2 |
| 20260505120758 | 63 | 306 | 2.6 | 11.3 | 0.00 | 0.00 | 0.00 | 59 | 1018.2 |
| 20260505120258 | 62 | 333 | 1.7 | 11.3 | 0.00 | 0.00 | 0.00 | 58 | 1018.2 |
| 20260505115758 | 62 | 350 | 3.5 | 8.7 | 0.00 | 0.00 | 0.00 | 58 | 1018.3 |
| 20260505115259 | 62 | 331 | 5.2 | 10.4 | 0.00 | 0.00 | 0.00 | 57 | 1018.4 |
| 20260505115110 | 62 | 300 | 6.1 | 10.4 | 0.00 | 0.00 | 0.00 | 58 | 1018.3 |
| 20260505114258 | 62 | 307 | 3.5 | 9.6 | 0.00 | 0.00 | 0.00 | 58 | 1018.3 |
| 20260505114102 | 62 | 314 | 5.2 | 12.2 | 0.00 | 0.00 | 0.00 | 59 | 1018.4 |
| 20260505113257 | 62 | 283 | 3.5 | 12.2 | 0.00 | 0.00 | 0.00 | 59 | 1018.4 |
| 20260505112757 | 63 | 329 | 3.5 | 9.6 | 0.00 | 0.00 | 0.00 | 59 | 1018.5 |
| 20260505112603 | 63 | 345 | 2.6 | 6.1 | 0.00 | 0.00 | 0.00 | 59 | 1018.4 |
| 20260505111756 | 63 | 276 | 4.3 | 6.1 | 0.00 | 0.00 | 0.00 | 59 | 1018.4 |
| 20260505111257 | 63 | 285 | 2.6 | 9.6 | 0.00 | 0.00 | 0.00 | 61 | 1018.6 |
| 20260505110756 | 62 | 272 | 2.6 | 9.6 | 0.00 | 0.00 | 0.00 | 59 | 1018.6 |
| 20260505110256 | 62 | 299 | 3.5 | 10.4 | 0.00 | 0.00 | 0.00 | 60 | 1018.5 |
| 20260505101756 | 63 | 279 | 2.6 | 8.7 | 0.00 | 0.00 | 0.00 | 58 | 1018.5 |
| 20260505101256 | 63 | 282 | 3.5 | 9.6 | 0.00 | 0.00 | 0.00 | 57 | 1018.5 |
| 20260505100756 | 63 | 250 | 6.1 | 9.6 | 0.00 | 0.00 | 0.00 | 55 | 1018.5 |
| 20260505100611 | 63 | 200 | 4.3 | 7.8 | 0.00 | 0.00 | 0.00 | 55 | 1018.4 |
| 20260505095756 | 63 | 227 | 2.6 | 4.3 | 0.00 | 0.00 | 0.00 | 55 | 1018.4 |
| 20260505095557 | 62 | 254 | 2.6 | 9.6 | 0.00 | 0.00 | 0.00 | 53 | 1018.5 |
| 20260505094754 | 62 | 200 | 3.5 | 9.6 | 0.00 | 0.00 | 0.00 | 52 | 1018.5 |
| 20260505094254 | 62 | 180 | 4.3 | 10.4 | 0.00 | 0.00 | 0.00 | 53 | 1018.4 |
| 20260505093755 | 62 | 214 | 5.2 | 10.4 | 0.00 | 0.00 | 0.00 | 51 | 1018.4 |
| 20260505093254 | 63 | 202 | 4.3 | 9.6 | 0.00 | 0.00 | 0.00 | 53 | 1018.3 |
| 20260505093104 | 62 | 241 | 3.5 | 10.4 | 0.00 | 0.00 | 0.00 | 53 | 1018.3 |
| 20260505092254 | 62 | 214 | 5.2 | 10.4 | 0.00 | 0.00 | 0.00 | 51 | 1018.1 |
| 20260505091756 | 62 | 182 | 6.1 | 9.6 | 0.00 | 0.00 | 0.00 | 50 | 1018.0 |
| 20260505091255 | 62 | 213 | 4.3 | 10.4 | 0.00 | 0.00 | 0.00 | 51 | 1018.1 |
| 20260505091105 | 61 | 168 | 4.3 | 10.4 | 0.00 | 0.00 | 0.00 | 50 | 1018.3 |
| 20260505090253 | 61 | 180 | 4.3 | 9.6 | 0.00 | 0.00 | 0.00 | 49 | 1018.3 |
| 20260505085753 | 61 | 180 | 4.3 | 10.4 | 0.00 | 0.00 | 0.00 | 49 | 1018.2 |
| 20260505085558 | 61 | 196 | 6.1 | 10.4 | 0.00 | 0.00 | 0.00 | 47 | 1018.2 |
| 20260505084753 | 61 | 193 | 5.2 | 9.6 | 0.00 | 0.00 | 0.00 | 46 | 1018.1 |
| 20260505084253 | 61 | 165 | 5.2 | 9.6 | 0.00 | 0.00 | 0.00 | 47 | 1018.2 |
| 20260505083753 | 61 | 148 | 5.2 | 8.7 | 0.00 | 0.00 | 0.00 | 49 | 1018.1 |
| 20260505083254 | 61 | 188 | 3.5 | 7.8 | 0.00 | 0.00 | 0.00 | 54 | 1018.1 |
| 20260505082754 | 60 | 223 | 1.7 | 6.1 | 0.00 | 0.00 | 0.00 | 56 | 1018.2 |
| 20260505082253 | 60 | 178 | 1.7 | 6.1 | 0.00 | 0.00 | 0.00 | 55 | 1018.1 |
| 20260505082102 | 60 | 207 | 4.3 | 6.1 | 0.00 | 0.00 | 0.00 | 53 | 1018.3 |
| 20260505081254 | 60 | 231 | 2.6 | 8.7 | 0.00 | 0.00 | 0.00 | 56 | 1018.3 |
| 20260505080753 | 60 | 212 | 5.2 | 8.7 | 0.00 | 0.00 | 0.00 | 55 | 1018.3 |
| 20260505080252 | 60 | 197 | 2.6 | 7.8 | 0.00 | 0.00 | 0.00 | 54 | 1018.3 |
| 20260505075752 | 60 | 204 | 1.7 | 7.8 | 0.00 | 0.00 | 0.00 | 54 | 1018.3 |
| 20260505075253 | 60 | 204 | 2.6 | 7.8 | 0.00 | 0.00 | 0.00 | 57 | 1018.4 |
| 20260505075106 | 60 | 216 | 1.7 | 6.1 | 0.00 | 0.00 | 0.00 | 56 | 1018.4 |
| 20260505074252 | 60 | 257 | 0.9 | 5.2 | 0.00 | 0.00 | 0.00 | 57 | 1018.4 |
| 20260505073751 | 60 | 203 | 1.7 | 6.1 | 0.00 | 0.00 | 0.00 | 59 | 1018.4 |
| 20260505073251 | 59 | 189 | 3.5 | 6.1 | 0.00 | 0.00 | 0.00 | 58 | 1018.3 |
| 20260505072752 | 59 | 275 | 3.5 | 5.2 | 0.00 | 0.00 | 0.00 | 61 | 1018.3 |
| 20260505072558 | 59 | 252 | 2.6 | 5.2 | 0.00 | 0.00 | 0.00 | 61 | 1018.2 |
| 20260505072129 | 59 | 289 | 2.6 | 6.1 | 0.00 | 0.00 | 0.00 | 60 | 1018.3 |
| 20260505071253 | 59 | 262 | 2.6 | 6.1 | 0.00 | 0.00 | 0.00 | 60 | 1018.2 |
| 20260505070751 | 59 | 258 | 3.5 | 5.2 | 0.00 | 0.00 | 0.00 | 60 | 1018.2 |
| 20260505070251 | 59 | 265 | 3.5 | 5.2 | 0.00 | 0.00 | 0.00 | 60 | 1018.3 |
| 20260505065751 | 59 | 217 | 0.9 | 7.8 | 0.00 | 0.00 | 0.00 | 58 | 1018.2 |
| 20260505065251 | 59 | 228 | 0.9 | 9.6 | 0.00 | 0.00 | 0.00 | 59 | 1018.2 |
| 20260505065056 | 59 | 245 | 5.2 | 9.6 | 0.00 | 0.00 | 0.00 | 60 | 1018.2 |
| 20260505064251 | 59 | 235 | 4.3 | 7.8 | 0.00 | 0.00 | 0.00 | 60 | 1018.1 |
| 20260505064109 | 58 | 216 | 3.5 | 8.7 | 0.00 | 0.00 | 0.00 | 62 | 1018.1 |
| 20260505063250 | 58 | 220 | 4.3 | 11.3 | 0.00 | 0.00 | 0.00 | 62 | 1018.1 |
| 20260505062751 | 58 | 250 | 5.2 | 11.3 | 0.00 | 0.00 | 0.00 | 62 | 1017.9 |
| 20260505062601 | 58 | 241 | 7.0 | 11.3 | 0.00 | 0.00 | 0.00 | 60 | 1018.0 |
| 20260505061750 | 58 | 248 | 6.1 | 10.4 | 0.00 | 0.00 | 0.00 | 58 | 1017.9 |
| 20260505061250 | 58 | 300 | 3.5 | 7.8 | 0.00 | 0.00 | 0.00 | 60 | 1018.0 |
| 20260505060750 | 59 | 265 | 2.6 | 6.1 | 0.00 | 0.00 | 0.00 | 59 | 1018.1 |
| 20260505060249 | 59 | 261 | 3.5 | 6.1 | 0.00 | 0.00 | 0.00 | 55 | 1018.0 |
| 20260505055749 | 59 | 257 | 2.6 | 6.1 | 0.00 | 0.00 | 0.00 | 53 | 1018.1 |
| 20260505055250 | 59 | 245 | 2.6 | 7.8 | 0.00 | 0.00 | 0.00 | 52 | 1017.9 |
| 20260505054749 | 59 | 283 | 3.5 | 7.8 | 0.00 | 0.00 | 0.00 | 49 | 1017.9 |
| 20260505054250 | 59 | 259 | 2.6 | 5.2 | 0.00 | 0.00 | 0.00 | 49 | 1017.8 |
| 20260505053749 | 59 | 224 | 1.7 | 4.3 | 0.00 | 0.00 | 0.00 | 52 | 1017.8 |
| 20260505053248 | 59 | 202 | 1.7 | 3.5 | 0.00 | 0.00 | 0.00 | 51 | 1017.7 |
| 20260505052748 | 59 | 216 | 1.7 | 4.3 | 0.00 | 0.00 | 0.00 | 51 | 1017.7 |
| 20260505052249 | 59 | 195 | 2.6 | 4.3 | 0.00 | 0.00 | 0.00 | 48 | 1017.7 |
| 20260505051749 | 59 | 216 | 1.7 | 5.2 | 0.00 | 0.00 | 0.00 | 48 | 1017.8 |
| 20260505051250 | 60 | 213 | 1.7 | 5.2 | 0.00 | 0.00 | 0.00 | 47 | 1017.7 |
| 20260505050748 | 60 | 245 | 0.9 | 4.3 | 0.00 | 0.00 | 0.00 | 47 | 1017.7 |
| 20260505050359 | 59 | 204 | 3.5 | 5.2 | 0.00 | 0.00 | 0.00 | 43 | 1017.7 |
| 20260505050337 | 60 | 209 | 1.7 | 5.2 | 0.00 | 0.00 | 0.00 | 44 | 1017.7 |
| 20260505041747 | 59 | 209 | 3.5 | 4.3 | 0.00 | 0.00 | 0.00 | 43 | 1017.6 |
| 20260505041552 | 59 | 223 | 2.6 | 6.1 | 0.00 | 0.00 | 0.00 | 41 | 1017.6 |
| 20260505041055 | 59 | 227 | 3.5 | 6.1 | 0.00 | 0.00 | 0.00 | 41 | 1017.6 |
| 20260505040553 | 59 | 245 | 1.7 | 5.2 | 0.00 | 0.00 | 0.00 | 41 | 1017.6 |
| 20260505035748 | 59 | 234 | 2.6 | 5.2 | 0.00 | 0.00 | 0.00 | 41 | 1017.5 |
| 20260505035247 | 59 | 228 | 3.5 | 4.3 | 0.00 | 0.00 | 0.00 | 41 | 1017.6 |
| 20260505034751 | 59 | 217 | 2.6 | 4.3 | 0.00 | 0.00 | 0.00 | 42 | 1017.6 |
| 20260505034245 | 58 | 221 | 2.6 | 3.5 | 0.00 | 0.00 | 0.00 | 44 | 1017.6 |
| 20260505033746 | 58 | 217 | 1.7 | 4.3 | 0.00 | 0.00 | 0.00 | 46 | 1017.6 |
| 20260505033247 | 58 | 258 | 2.6 | 4.3 | 0.00 | 0.00 | 0.00 | 46 | 1017.7 |
| 20260505032746 | 58 | 237 | 1.7 | 5.2 | 0.00 | 0.00 | 0.00 | 45 | 1017.6 |
| 20260505032246 | 57 | 234 | 1.7 | 5.2 | 0.00 | 0.00 | 0.00 | 49 | 1017.7 |
| 20260505031746 | 56 | 216 | 2.6 | 5.2 | 0.00 | 0.00 | 0.00 | 56 | 1017.7 |
| 20260505031246 | 58 | 199 | 1.7 | 5.2 | 0.00 | 0.00 | 0.00 | 62 | 1017.6 |
| 20260505030745 | 58 | 199 | 2.6 | 5.2 | 0.00 | 0.00 | 0.00 | 55 | 1017.7 |
| 20260505030246 | 57 | 220 | 3.5 | 5.2 | 0.00 | 0.00 | 0.00 | 57 | 1017.6 |
| 20260505025745 | 56 | 248 | 2.6 | 4.3 | 0.00 | 0.00 | 0.00 | 60 | 1017.7 |
| 20260505025245 | 58 | 319 | 1.7 | 3.5 | 0.00 | 0.00 | 0.00 | 60 | 1017.6 |
| 20260505024745 | 58 | 257 | 2.6 | 3.5 | 0.00 | 0.00 | 0.00 | 53 | 1017.6 |
| 20260505024245 | 57 | 258 | 2.6 | 3.5 | 0.00 | 0.00 | 0.00 | 54 | 1017.6 |
| 20260505023745 | 56 | 262 | 1.7 | 3.5 | 0.00 | 0.00 | 0.00 | 57 | 1017.8 |
| 20260505023246 | 55 | 258 | 1.7 | 3.5 | 0.00 | 0.00 | 0.00 | 65 | 1017.8 |
| 20260505023056 | 54 | 262 | 1.7 | 2.6 | 0.00 | 0.00 | 0.00 | 70 | 1017.9 |
| 20260505022549 | 54 | 286 | 0.9 | 2.6 | 0.00 | 0.00 | 0.00 | 71 | 1017.9 |
| 20260505021745 | 54 | 259 | 0.0 | 2.6 | 0.00 | 0.00 | 0.00 | 70 | 1017.9 |
| 20260505021245 | 53 | 254 | 0.9 | 3.5 | 0.00 | 0.00 | 0.00 | 72 | 1018.0 |
| 20260505021054 | 53 | 296 | 1.7 | 3.5 | 0.00 | 0.00 | 0.00 | 75 | 1018.0 |
| 20260505020244 | 52 | 278 | 0.9 | 3.5 | 0.00 | 0.00 | 0.00 | 79 | 1018.1 |
| 20260505020055 | 52 | 282 | 0.9 | 3.5 | 0.00 | 0.00 | 0.00 | 80 | 1018.1 |
| 20260505015244 | 52 | 271 | 0.9 | 1.7 | 0.00 | 0.00 | 0.00 | 81 | 1018.1 |
| 20260505014747 | 52 | 271 | 0.0 | 0.0 | 0.00 | 0.00 | 0.00 | 81 | 1018.1 |
| 20260505014244 | 52 | 271 | 0.0 | 0.0 | 0.00 | 0.00 | 0.00 | 81 | 1018.3 |
| 20260505013744 | 52 | 271 | 0.0 | 0.9 | 0.00 | 0.00 | 0.00 | 81 | 1018.3 |
| 20260505013249 | 52 | 271 | 0.0 | 0.9 | 0.00 | 0.00 | 0.00 | 81 | 1018.4 |
| 20260505012744 | 52 | 271 | 0.0 | 0.9 | 0.00 | 0.00 | 0.00 | 81 | 1018.4 |
| 20260505012243 | 52 | 271 | 0.0 | 0.9 | 0.00 | 0.00 | 0.00 | 81 | 1018.5 |
| 20260505011743 | 51 | 271 | 0.0 | 0.9 | 0.00 | 0.00 | 0.00 | 81 | 1018.5 |
| 20260505011243 | 51 | 271 | 0.0 | 0.9 | 0.00 | 0.00 | 0.00 | 81 | 1018.6 |
| 20260505010743 | 51 | 271 | 0.0 | 0.0 | 0.00 | 0.00 | 0.00 | 81 | 1018.6 |
| 20260505010242 | 51 | 271 | 0.0 | 1.7 | 0.00 | 0.00 | 0.00 | 80 | 1018.6 |
| 20260505010058 | 52 | 271 | 0.0 | 1.7 | 0.00 | 0.00 | 0.00 | 79 | 1018.6 |
| 20260505005242 | 52 | 271 | 0.0 | 0.0 | 0.00 | 0.00 | 0.00 | 78 | 1018.7 |
| 20260505004742 | 53 | 271 | 0.0 | 2.6 | 0.00 | 0.00 | 0.00 | 78 | 1018.6 |
| 20260505004242 | 53 | 271 | 0.9 | 2.6 | 0.00 | 0.00 | 0.00 | 78 | 1018.7 |
| 20260505003851 | 52 | 271 | 0.0 | 1.7 | 0.00 | 0.00 | 0.00 | 79 | 1018.7 |
| 20260505003827 | 53 | 271 | 0.0 | 0.9 | 0.00 | 0.00 | 0.00 | 78 | 1018.6 |
| 20260505002900 | 52 | 271 | 0.0 | 0.0 | 0.00 | 0.00 | 0.00 | 80 | 1018.7 |
| 20260505002833 | 52 | 271 | 1.7 | 1.7 | 0.00 | 0.00 | 0.00 | 80 | 1018.7 |
| 20260505001743 | 52 | 271 | 0.0 | 1.7 | 0.00 | 0.00 | 0.00 | 79 | 1018.8 |
| 20260505001242 | 52 | 271 | 0.0 | 2.6 | 0.00 | 0.00 | 0.00 | 80 | 1018.9 |
| 20260505000741 | 52 | 271 | 0.9 | 2.6 | 0.00 | 0.00 | 0.00 | 80 | 1018.9 |
| 20260505000543 | 52 | 271 | 1.7 | 2.6 | 0.00 | 0.00 | 0.00 | 79 | 1018.9 |
| 20260504235742 | 52 | 271 | 0.0 | 0.0 | 0.00 | 0.00 | 0.00 | 79 | 1018.9 |
| 20260504235241 | 52 | 271 | 0.0 | 0.0 | 0.00 | 0.00 | 0.00 | 78 | 1018.8 |
| 20260504234741 | 52 | 271 | 0.0 | 0.0 | 0.00 | 0.00 | 0.00 | 78 | 1018.8 |
| 20260504234241 | 52 | 271 | 0.0 | 0.0 | 0.00 | 0.00 | 0.00 | 78 | 1018.8 |
| 20260504233740 | 52 | 271 | 0.0 | 0.9 | 0.00 | 0.00 | 0.00 | 79 | 1018.9 |
| 20260504233241 | 52 | 271 | 0.0 | 0.9 | 0.00 | 0.00 | 0.00 | 79 | 1018.9 |
| 20260504232740 | 52 | 271 | 0.0 | 0.0 | 0.00 | 0.00 | 0.00 | 79 | 1018.9 |
| 20260504232548 | 52 | 271 | 0.0 | 0.0 | 0.00 | 0.00 | 0.00 | 79 | 1018.9 |
| 20260504231738 | 53 | 271 | 0.0 | 0.0 | 0.00 | 0.00 | 0.00 | 78 | 1018.9 |
| 20260504231239 | 53 | 271 | 0.0 | 0.0 | 0.00 | 0.00 | 0.00 | 78 | 1018.9 |
| 20260504230738 | 53 | 271 | 0.0 | 0.0 | 0.00 | 0.00 | 0.00 | 78 | 1018.9 |
| 20260504230539 | 53 | 271 | 0.0 | 0.0 | 0.00 | 0.00 | 0.00 | 77 | 1019.1 |
| 20260504225735 | 54 | 271 | 0.0 | 0.0 | 0.00 | 0.00 | 0.00 | 77 | 1019.1 |
| 20260504225236 | 54 | 271 | 0.0 | 0.0 | 0.00 | 0.00 | 0.00 | 76 | 1019.1 |
| 20260504224735 | 54 | 271 | 0.0 | 0.0 | 0.00 | 0.00 | 0.00 | 76 | 1019.1 |
| 20260504224236 | 54 | 271 | 0.0 | 0.0 | 0.00 | 0.00 | 0.00 | 76 | 1019.2 |
| 20260504223734 | 54 | 271 | 0.0 | 0.0 | 0.00 | 0.00 | 0.00 | 77 | 1019.2 |
| 20260504223234 | 54 | 271 | 0.0 | 0.9 | 0.00 | 0.00 | 0.00 | 77 | 1019.3 |
| 20260504222735 | 54 | 271 | 0.9 | 0.9 | 0.00 | 0.00 | 0.00 | 77 | 1019.3 |
| 20260504222232 | 54 | 271 | 0.0 | 0.9 | 0.00 | 0.00 | 0.00 | 76 | 1019.4 |
| 20260504222034 | 55 | 271 | 0.0 | 0.9 | 0.00 | 0.00 | 0.00 | 76 | 1019.4 |
| 20260504221233 | 54 | 271 | 0.0 | 0.9 | 0.00 | 0.00 | 0.00 | 76 | 1019.4 |
| 20260504220732 | 54 | 271 | 0.0 | 0.0 | 0.00 | 0.00 | 0.00 | 77 | 1019.5 |
| 20260504220233 | 54 | 271 | 0.0 | 0.0 | 0.00 | 0.00 | 0.00 | 77 | 1019.5 |
| 20260504215732 | 54 | 271 | 0.0 | 0.0 | 0.00 | 0.00 | 0.00 | 76 | 1019.7 |
| 20260504215232 | 54 | 271 | 0.0 | 0.9 | 0.00 | 0.00 | 0.00 | 76 | 1019.8 |
| 20260504214731 | 54 | 271 | 0.0 | 0.9 | 0.00 | 0.00 | 0.00 | 75 | 1019.7 |
| 20260504214541 | 55 | 271 | 0.0 | 0.0 | 0.00 | 0.00 | 0.00 | 74 | 1019.7 |
| 20260504213731 | 55 | 271 | 0.0 | 0.0 | 0.00 | 0.00 | 0.00 | 74 | 1019.5 |
| 20260504213234 | 55 | 271 | 0.0 | 1.7 | 0.00 | 0.00 | 0.00 | 73 | 1019.5 |
| 20260504212731 | 55 | 271 | 0.0 | 1.7 | 0.00 | 0.00 | 0.00 | 73 | 1019.7 |
| 20260504212542 | 56 | 271 | 0.0 | 4.3 | 0.00 | 0.00 | 0.00 | 72 | 1019.7 |
| 20260504211731 | 56 | 271 | 1.7 | 4.3 | 0.00 | 0.00 | 0.00 | 73 | 1019.8 |
| 20260504211342 | 55 | 276 | 0.0 | 2.6 | 0.00 | 0.00 | 0.00 | 73 | 1019.5 |
| 20260504211319 | 56 | 281 | 1.7 | 3.5 | 0.00 | 0.00 | 0.00 | 73 | 1019.5 |
| 20260504210231 | 56 | 283 | 0.9 | 2.6 | 0.00 | 0.00 | 0.00 | 72 | 1019.7 |
| 20260504205731 | 56 | 278 | 0.9 | 1.7 | 0.00 | 0.00 | 0.00 | 71 | 1019.7 |
| 20260504205231 | 56 | 278 | 0.0 | 4.3 | 0.00 | 0.00 | 0.00 | 71 | 1019.7 |
| 20260504204733 | 56 | 278 | 0.0 | 4.3 | 0.00 | 0.00 | 0.00 | 71 | 1019.7 |
| 20260504204231 | 56 | 264 | 1.7 | 3.5 | 0.00 | 0.00 | 0.00 | 70 | 1019.7 |
| 20260504203731 | 56 | 254 | 0.0 | 1.7 | 0.00 | 0.00 | 0.00 | 70 | 1019.7 |
| 20260504203231 | 57 | 231 | 0.0 | 1.7 | 0.00 | 0.00 | 0.00 | 69 | 1019.7 |
| 20260504202730 | 57 | 231 | 0.0 | 3.5 | 0.00 | 0.00 | 0.00 | 69 | 1019.8 |
| 20260504202340 | 57 | 214 | 2.6 | 7.8 | 0.00 | 0.00 | 0.00 | 69 | 1019.5 |
| 20260504202319 | 57 | 251 | 0.9 | 7.8 | 0.00 | 0.00 | 0.00 | 69 | 1019.7 |
| 20260504201233 | 57 | 250 | 3.5 | 7.8 | 0.00 | 0.00 | 0.00 | 69 | 1019.5 |
| 20260504200733 | 58 | 265 | 3.5 | 13.0 | 0.00 | 0.00 | 0.00 | 68 | 1019.5 |
| 20260504200231 | 58 | 252 | 5.2 | 13.0 | 0.00 | 0.00 | 0.00 | 67 | 1019.5 |
| 20260504195731 | 58 | 247 | 5.2 | 9.6 | 0.00 | 0.00 | 0.00 | 67 | 1019.3 |
| 20260504195232 | 58 | 259 | 4.3 | 7.8 | 0.00 | 0.00 | 0.00 | 67 | 1019.4 |
| 20260504194731 | 58 | 272 | 4.3 | 7.8 | 0.00 | 0.00 | 0.00 | 67 | 1019.4 |
| 20260504194539 | 58 | 278 | 3.5 | 8.7 | 0.00 | 0.00 | 0.00 | 66 | 1019.7 |
| 20260504193731 | 58 | 271 | 4.3 | 9.6 | 0.00 | 0.00 | 0.00 | 67 | 1019.5 |
| 20260504193549 | 58 | 244 | 5.2 | 9.6 | 0.00 | 0.00 | 0.00 | 67 | 1019.5 |
| 20260504192735 | 58 | 255 | 2.6 | 8.7 | 0.00 | 0.00 | 0.00 | 67 | 1019.4 |
| 20260504192537 | 58 | 243 | 4.3 | 8.7 | 0.00 | 0.00 | 0.00 | 67 | 1019.5 |
| 20260504191731 | 58 | 237 | 3.5 | 8.7 | 0.00 | 0.00 | 0.00 | 67 | 1019.5 |
| 20260504191231 | 59 | 245 | 4.3 | 8.7 | 0.00 | 0.00 | 0.00 | 66 | 1019.5 |
| 20260504190731 | 59 | 227 | 5.2 | 11.3 | 0.00 | 0.00 | 0.00 | 66 | 1019.3 |
| 20260504190230 | 59 | 227 | 6.1 | 12.2 | 0.00 | 0.00 | 0.00 | 65 | 1019.3 |
| 20260504185731 | 59 | 281 | 6.1 | 12.2 | 0.00 | 0.00 | 0.00 | 65 | 1019.3 |
| 20260504185231 | 59 | 258 | 7.8 | 12.2 | 0.00 | 0.00 | 0.00 | 65 | 1019.2 |
| 20260504184730 | 59 | 251 | 4.3 | 10.4 | 0.00 | 0.00 | 0.00 | 65 | 1019.2 |
| 20260504184231 | 59 | 226 | 6.1 | 12.2 | 0.00 | 0.00 | 0.00 | 66 | 1019.2 |
| 20260504184040 | 59 | 206 | 7.8 | 12.2 | 0.00 | 0.00 | 0.00 | 65 | 1019.1 |
| 20260504183231 | 59 | 257 | 7.0 | 12.2 | 0.00 | 0.00 | 0.00 | 66 | 1019.2 |
| 20260504182732 | 60 | 231 | 6.1 | 11.3 | 0.00 | 0.00 | 0.00 | 65 | 1019.1 |
| 20260504182231 | 60 | 244 | 7.0 | 13.0 | 0.00 | 0.00 | 0.00 | 65 | 1019.1 |
| 20260504181732 | 60 | 233 | 6.1 | 13.0 | 0.00 | 0.00 | 0.00 | 64 | 1019.1 |
| 20260504181536 | 60 | 226 | 7.0 | 11.3 | 0.00 | 0.00 | 0.00 | 64 | 1019.0 |
| 20260504180731 | 60 | 254 | 6.1 | 11.3 | 0.00 | 0.00 | 0.00 | 64 | 1019.0 |
| 20260504180231 | 60 | 247 | 6.1 | 11.3 | 0.00 | 0.00 | 0.00 | 64 | 1018.9 |
| 20260504175844 | 60 | 251 | 6.1 | 13.0 | 0.00 | 0.00 | 0.00 | 64 | 1018.8 |
| 20260504175822 | 60 | 235 | 5.2 | 12.2 | 0.00 | 0.00 | 0.00 | 64 | 1018.9 |
| 20260504174731 | 60 | 290 | 5.2 | 13.0 | 0.00 | 0.00 | 0.00 | 64 | 1018.9 |
| 20260504174535 | 61 | 228 | 7.0 | 13.0 | 0.00 | 0.00 | 0.00 | 64 | 1018.9 |
| 20260504173732 | 61 | 254 | 7.0 | 11.3 | 0.00 | 0.00 | 0.00 | 64 | 1018.9 |
| 20260504173230 | 61 | 295 | 7.0 | 13.0 | 0.00 | 0.00 | 0.00 | 64 | 1018.9 |
| 20260504172732 | 61 | 254 | 6.1 | 13.0 | 0.00 | 0.00 | 0.00 | 64 | 1018.9 |
| 20260504172535 | 61 | 262 | 7.8 | 13.0 | 0.00 | 0.00 | 0.00 | 63 | 1018.8 |
| 20260504171734 | 61 | 283 | 4.3 | 18.2 | 0.00 | 0.00 | 0.00 | 63 | 1018.8 |
| 20260504171231 | 61 | 290 | 8.7 | 18.2 | 0.00 | 0.00 | 0.00 | 63 | 1018.8 |
| 20260504170731 | 62 | 240 | 5.2 | 13.0 | 0.00 | 0.00 | 0.00 | 63 | 1018.9 |
| 20260504170231 | 62 | 293 | 7.8 | 15.6 | 0.00 | 0.00 | 0.00 | 63 | 1018.9 |
| 20260504160230 | 65 | 307 | 4.3 | 11.3 | 0.00 | 0.00 | 0.00 | 61 | 1018.7 |
| 20260504150731 | 67 | 303 | 7.8 | 13.0 | 0.00 | 0.00 | 0.00 | 59 | 1018.9 |
| 20260504150232 | 67 | 314 | 6.1 | 12.2 | 0.00 | 0.00 | 0.00 | 60 | 1018.9 |
| 20260504140731 | 69 | 320 | 7.8 | 12.2 | 0.00 | 0.00 | 0.00 | 57 | 1019.0 |
| 20260504140538 | 69 | 293 | 7.8 | 10.4 | 0.00 | 0.00 | 0.00 | 55 | 1019.1 |